Tracking 18032 objects as of 27-March-2017
HD Live streaming from Space Station
objects crossing your sky now

OPS 9314 (IDSCS 4)

Track OPS 9314 (IDSCS 4) now!
OPS 9314 (IDSCS 4) is classified as:


NORAD ID: 2218
Int'l Code: 1966-053E
Perigee: 33,704.1 km
Apogee: 34,017.4 km
Inclination: 2.6 °
Period: 1,338.5 minutes
Semi major axis: 40231 km
RCS: 0.1 m2 (medium)
Launch date: June 16, 1966
Source: United States (US)
Launch site: AIR FORCE EASTERN TEST RANGE (AFETR)
Your satellite tracking list
Your tracking list is empty





NASA's NSSDC Master Catalog

Two Line Element Set (TLE):
1  2218U 66053E   17084.21463966 -.00000067 +00000-0 +00000-0 0  9994
2  2218 002.5680 057.9193 0038941 119.6361 069.4106 01.07584407199126
Source of the keplerian elements: AFSPC